SFR305 FAOR-FALE

Flight info

Callsign SFR305
Flight time 0h 51m
Altitude 35000
Route APDAK1D APDAK UQ48 APMAT APMAT1A
Aircraft B738/M-SDE2E3FGHIRWXY/LB1

Departure

Time 2026-05-06 16:18
Airport O.R. Tambo International Airport (FAOR)

Arrival

Time 2026-05-06 17:10
Airport King Shaka International Airport (FALE)
Time Latitude Longitude Altitude Speed Heading
2026-05-06 15:47 -26.13690 28.23148 5518 ft 0 kts
2026-05-06 16:03 -26.13695 28.23148 5550 ft 3 kts
2026-05-06 16:04 -26.13715 28.23143 5547 ft 3 kts 21°
2026-05-06 16:04 -26.13733 28.23134 5550 ft 3 kts 43°
2026-05-06 16:04 -26.13744 28.23117 5548 ft 3 kts 78°
2026-05-06 16:04 -26.13745 28.23103 5548 ft 1 kts 96°
2026-05-06 16:05 -26.13745 28.23101 5548 ft 0 kts 96°
2026-05-06 16:08 -26.13746 28.23117 5548 ft 6 kts 96°
2026-05-06 16:08 -26.13754 28.23194 5546 ft 14 kts 96°
2026-05-06 16:09 -26.13762 28.23305 5546 ft 14 kts 91°
2026-05-06 16:09 -26.13778 28.23410 5549 ft 14 kts 103°
2026-05-06 16:09 -26.13762 28.23502 5555 ft 13 kts 31°
2026-05-06 16:09 -26.13676 28.23532 5555 ft 14 kts 15°
2026-05-06 16:10 -26.13574 28.23563 5550 ft 16 kts 15°
2026-05-06 16:10 -26.13459 28.23599 5551 ft 18 kts 15°
2026-05-06 16:10 -26.13333 28.23636 5547 ft 20 kts 15°
2026-05-06 16:10 -26.13191 28.23682 5543 ft 22 kts 15°
2026-05-06 16:11 -26.13047 28.23727 5544 ft 21 kts 16°
2026-05-06 16:11 -26.12905 28.23771 5545 ft 21 kts 15°
2026-05-06 16:11 -26.12768 28.23812 5546 ft 20 kts 14°
2026-05-06 16:11 -26.12634 28.23854 5544 ft 20 kts 16°
2026-05-06 16:12 -26.12506 28.23895 5544 ft 19 kts 15°
2026-05-06 16:12 -26.12381 28.23933 5544 ft 18 kts 15°
2026-05-06 16:12 -26.12260 28.23971 5536 ft 18 kts 15°
2026-05-06 16:12 -26.12144 28.24006 5534 ft 17 kts 14°
2026-05-06 16:13 -26.12031 28.24040 5532 ft 16 kts 16°
2026-05-06 16:13 -26.11924 28.24073 5533 ft 16 kts 15°
2026-05-06 16:13 -26.11816 28.24108 5525 ft 16 kts 15°
2026-05-06 16:13 -26.11711 28.24141 5526 ft 15 kts 15°
2026-05-06 16:14 -26.11609 28.24172 5525 ft 15 kts 15°
2026-05-06 16:14 -26.11512 28.24202 5525 ft 14 kts 16°
2026-05-06 16:14 -26.11420 28.24231 5523 ft 14 kts 15°
2026-05-06 16:14 -26.11331 28.24258 5523 ft 13 kts 15°
2026-05-06 16:15 -26.11244 28.24285 5520 ft 14 kts 15°
2026-05-06 16:15 -26.11180 28.24304 5517 ft 15 kts 15°
2026-05-06 16:15 -26.11046 28.24346 5513 ft 15 kts 16°
2026-05-06 16:15 -26.10966 28.24371 5513 ft 8 kts 17°
2026-05-06 16:16 -26.10918 28.24409 5511 ft 10 kts 54°
2026-05-06 16:16 -26.10892 28.24458 5509 ft 13 kts 60°
2026-05-06 16:16 -26.10854 28.24551 5507 ft 8 kts 88°
2026-05-06 16:16 -26.10894 28.24592 5507 ft 9 kts 176°
2026-05-06 16:17 -26.10951 28.24579 5509 ft 8 kts 196°
2026-05-06 16:17 -26.11015 28.24559 5512 ft 11 kts 196°
2026-05-06 16:17 -26.11095 28.24533 5516 ft 14 kts 196°
2026-05-06 16:17 -26.11208 28.24499 5520 ft 25 kts 195°
2026-05-06 16:18 -26.11596 28.24377 5526 ft 92 kts 195°
2026-05-06 16:18 -26.12412 28.24126 5539 ft 149 kts 195°
2026-05-06 16:18 -26.13544 28.23784 5730 ft 181 kts 200°
2026-05-06 16:18 -26.14737 28.23409 6666 ft 177 kts 201°
2026-05-06 16:19 -26.15950 28.23031 7313 ft 187 kts 201°
2026-05-06 16:19 -26.17281 28.22614 7536 ft 211 kts 201°
2026-05-06 16:19 -26.18744 28.22158 7720 ft 231 kts 200°
2026-05-06 16:19 -26.20384 28.21649 7977 ft 249 kts 200°
2026-05-06 16:20 -26.22128 28.21108 8141 ft 272 kts 200°
2026-05-06 16:20 -26.23988 28.20532 8714 ft 280 kts 199°
2026-05-06 16:20 -26.25891 28.20019 9516 ft 286 kts 189°
2026-05-06 16:20 -26.27890 28.20344 10272 ft 300 kts 161°
2026-05-06 16:21 -26.29672 28.21726 10568 ft 330 kts 132°
2026-05-06 16:21 -26.30719 28.24021 11069 ft 345 kts 108°
2026-05-06 16:21 -26.31376 28.26614 11763 ft 350 kts 105°
2026-05-06 16:21 -26.31984 28.29265 12491 ft 355 kts 105°
2026-05-06 16:22 -26.32597 28.31954 13232 ft 360 kts 105°
2026-05-06 16:22 -26.33233 28.34679 13964 ft 366 kts 106°
2026-05-06 16:22 -26.33896 28.37447 14641 ft 371 kts 107°
2026-05-06 16:22 -26.34585 28.40265 15237 ft 380 kts 107°
2026-05-06 16:23 -26.35287 28.43105 15927 ft 384 kts 107°
2026-05-06 16:23 -26.35996 28.45955 16648 ft 388 kts 107°
2026-05-06 16:23 -26.36731 28.48903 17367 ft 392 kts 107°
2026-05-06 16:23 -26.37459 28.51816 18029 ft 398 kts 107°
2026-05-06 16:24 -26.38205 28.54807 18646 ft 403 kts 107°
2026-05-06 16:24 -26.38965 28.57856 19117 ft 412 kts 106°
2026-05-06 16:24 -26.39740 28.60968 19576 ft 421 kts 105°
2026-05-06 16:24 -26.40529 28.64144 20046 ft 429 kts 105°
2026-05-06 16:25 -26.41332 28.67379 20488 ft 437 kts 103°
2026-05-06 16:25 -26.42156 28.70705 20833 ft 448 kts 103°
2026-05-06 16:25 -26.42990 28.74075 21387 ft 453 kts 103°
2026-05-06 16:25 -26.43835 28.77485 21939 ft 459 kts 102°
2026-05-06 16:26 -26.44691 28.80944 22365 ft 466 kts 102°
2026-05-06 16:26 -26.45560 28.84451 22797 ft 474 kts 102°
2026-05-06 16:26 -26.46766 28.87912 23213 ft 485 kts 115°
2026-05-06 16:26 -26.48394 28.91239 23658 ft 492 kts 118°
2026-05-06 16:27 -26.50119 28.94570 24062 ft 496 kts 118°
2026-05-06 16:27 -26.51798 28.97888 24570 ft 495 kts 117°
2026-05-06 16:27 -26.53436 29.01262 25163 ft 493 kts 116°
2026-05-06 16:27 -26.55093 29.04625 25622 ft 497 kts 122°
2026-05-06 16:28 -26.57305 29.07603 26008 ft 500 kts 136°
2026-05-06 16:28 -26.59802 29.10328 26477 ft 502 kts 138°
2026-05-06 16:28 -26.62347 29.13020 26970 ft 505 kts 139°
2026-05-06 16:28 -26.64904 29.15733 27382 ft 507 kts 138°
2026-05-06 16:29 -26.67448 29.18472 27829 ft 509 kts 138°
2026-05-06 16:29 -26.69989 29.21251 28267 ft 511 kts 137°
2026-05-06 16:29 -26.72524 29.24056 28720 ft 513 kts 137°
2026-05-06 16:29 -26.75033 29.26846 29045 ft 516 kts 136°
2026-05-06 16:30 -26.77585 29.29689 29367 ft 520 kts 136°
2026-05-06 16:30 -26.79324 29.31626 29613 ft 522 kts 136°
2026-05-06 16:30 -26.82743 29.35433 30199 ft 524 kts 136°
2026-05-06 16:30 -26.85335 29.38319 30540 ft 526 kts 136°
2026-05-06 16:31 -26.87936 29.41214 30842 ft 528 kts 136°
2026-05-06 16:31 -26.90550 29.44120 31169 ft 529 kts 137°
2026-05-06 16:31 -26.93307 29.46837 31528 ft 527 kts 146°
2026-05-06 16:31 -26.96280 29.49227 31923 ft 524 kts 149°
2026-05-06 16:32 -26.99293 29.51528 32319 ft 523 kts 150°
2026-05-06 16:32 -27.02282 29.53777 32667 ft 524 kts 150°
2026-05-06 16:32 -27.05303 29.56061 32948 ft 525 kts 149°
2026-05-06 16:32 -27.08324 29.58374 33303 ft 526 kts 149°
2026-05-06 16:33 -27.11329 29.60703 33658 ft 526 kts 149°
2026-05-06 16:33 -27.14336 29.63053 34004 ft 526 kts 148°
2026-05-06 16:33 -27.17327 29.65403 34361 ft 523 kts 148°
2026-05-06 16:34 -27.23267 29.70078 34990 ft 521 kts 148°
2026-05-06 16:34 -27.29227 29.74767 35003 ft 520 kts 148°
2026-05-06 16:35 -27.35081 29.79376 34971 ft 513 kts 148°
2026-05-06 16:35 -27.40947 29.83997 34936 ft 515 kts 148°
2026-05-06 16:36 -27.46838 29.88644 34961 ft 517 kts 148°
2026-05-06 16:36 -27.52742 29.93309 34955 ft 519 kts 147°
2026-05-06 16:37 -27.58626 29.97966 34952 ft 520 kts 147°
2026-05-06 16:37 -27.64559 30.02668 34951 ft 521 kts 147°
2026-05-06 16:38 -27.70482 30.07370 34940 ft 521 kts 147°
2026-05-06 16:38 -27.73447 30.09733 34798 ft 522 kts 147°
2026-05-06 16:38 -27.76390 30.12083 34420 ft 519 kts 147°
2026-05-06 16:38 -27.79336 30.14439 34060 ft 516 kts 147°
2026-05-06 16:39 -27.82253 30.16773 33639 ft 513 kts 147°
2026-05-06 16:39 -27.85167 30.19105 33214 ft 510 kts 147°
2026-05-06 16:39 -27.88018 30.21388 32821 ft 507 kts 146°
2026-05-06 16:39 -27.90889 30.23688 32425 ft 504 kts 146°
2026-05-06 16:40 -27.93743 30.25975 32067 ft 502 kts 146°
2026-05-06 16:40 -27.96591 30.28259 31649 ft 500 kts 146°
2026-05-06 16:40 -27.99421 30.30530 31280 ft 498 kts 145°
2026-05-06 16:40 -28.02238 30.32792 30886 ft 495 kts 145°
2026-05-06 16:41 -28.05048 30.35050 30491 ft 494 kts 145°
2026-05-06 16:41 -28.07842 30.37297 30123 ft 491 kts 145°
2026-05-06 16:41 -28.10624 30.39536 29678 ft 490 kts 145°
2026-05-06 16:41 -28.13394 30.41766 29290 ft 486 kts 144°
2026-05-06 16:42 -28.16124 30.43966 28877 ft 483 kts 144°
2026-05-06 16:42 -28.18864 30.46175 28450 ft 481 kts 144°
2026-05-06 16:42 -28.21547 30.48340 28055 ft 478 kts 144°
2026-05-06 16:42 -28.24258 30.50530 27661 ft 476 kts 144°
2026-05-06 16:43 -28.26952 30.52707 27253 ft 473 kts 144°
2026-05-06 16:43 -28.29632 30.54873 26867 ft 471 kts 144°
2026-05-06 16:43 -28.32301 30.57031 26491 ft 469 kts 144°
2026-05-06 16:43 -28.34956 30.59179 26125 ft 468 kts 144°
2026-05-06 16:44 -28.37613 30.61329 25687 ft 469 kts 143°
2026-05-06 16:44 -28.40271 30.63481 25291 ft 469 kts 144°
2026-05-06 16:44 -28.42894 30.65603 24888 ft 469 kts 144°
2026-05-06 16:44 -28.45548 30.67749 24478 ft 469 kts 144°
2026-05-06 16:45 -28.48207 30.69903 24080 ft 469 kts 144°
2026-05-06 16:45 -28.50864 30.72059 23687 ft 469 kts 143°
2026-05-06 16:45 -28.53531 30.74226 23216 ft 469 kts 143°
2026-05-06 16:45 -28.56178 30.76382 22825 ft 463 kts 143°
2026-05-06 16:46 -28.58770 30.78498 22394 ft 453 kts 143°
2026-05-06 16:46 -28.61309 30.80562 22010 ft 444 kts 144°
2026-05-06 16:46 -28.63795 30.82583 21643 ft 442 kts 144°
2026-05-06 16:46 -28.66290 30.84617 21233 ft 440 kts 143°
2026-05-06 16:47 -28.68758 30.86638 20908 ft 439 kts 144°
2026-05-06 16:47 -28.71243 30.88666 20467 ft 440 kts 144°
2026-05-06 16:47 -28.73728 30.90692 20116 ft 440 kts 144°
2026-05-06 16:47 -28.76206 30.92716 19726 ft 433 kts 144°
2026-05-06 16:48 -28.78645 30.94615 19342 ft 425 kts 153°
2026-05-06 16:48 -28.81347 30.95762 18935 ft 408 kts 173°
2026-05-06 16:48 -28.84100 30.96399 18504 ft 399 kts 173°
2026-05-06 16:48 -28.86784 30.97055 18210 ft 391 kts 172°
2026-05-06 16:49 -28.89422 30.97773 17876 ft 387 kts 171°
2026-05-06 16:49 -28.92041 30.98472 17515 ft 386 kts 172°
2026-05-06 16:49 -28.94666 30.99135 17135 ft 384 kts 172°
2026-05-06 16:49 -28.97265 30.99797 16815 ft 381 kts 172°
2026-05-06 16:50 -28.99801 31.00451 16571 ft 372 kts 172°
2026-05-06 16:50 -29.02271 31.01091 16471 ft 356 kts 172°
2026-05-06 16:50 -29.04647 31.01711 16282 ft 342 kts 173°
2026-05-06 16:50 -29.06194 31.02116 16172 ft 333 kts 173°
2026-05-06 16:51 -29.09109 31.02881 15991 ft 317 kts 173°
2026-05-06 16:51 -29.11234 31.03438 15871 ft 310 kts 173°
2026-05-06 16:51 -29.13330 31.03987 15618 ft 307 kts 173°
2026-05-06 16:51 -29.15402 31.04534 15346 ft 305 kts 173°
2026-05-06 16:52 -29.17470 31.05074 15087 ft 303 kts 173°
2026-05-06 16:52 -29.19515 31.05608 14839 ft 301 kts 173°
2026-05-06 16:52 -29.21523 31.06136 14564 ft 296 kts 173°
2026-05-06 16:52 -29.23507 31.06659 14313 ft 289 kts 172°
2026-05-06 16:53 -29.25455 31.07171 14047 ft 286 kts 172°
2026-05-06 16:53 -29.27389 31.07679 13802 ft 285 kts 172°
2026-05-06 16:53 -29.29322 31.08188 13529 ft 284 kts 172°
2026-05-06 16:53 -29.31222 31.08689 13263 ft 274 kts 173°
2026-05-06 16:54 -29.33040 31.09171 12959 ft 263 kts 173°
2026-05-06 16:54 -29.34789 31.09632 12691 ft 253 kts 172°
2026-05-06 16:54 -29.36465 31.10075 12478 ft 243 kts 173°
2026-05-06 16:54 -29.38100 31.10505 12263 ft 239 kts 172°
2026-05-06 16:55 -29.39712 31.10929 12039 ft 237 kts 172°
2026-05-06 16:55 -29.41318 31.11351 11815 ft 236 kts 172°
2026-05-06 16:55 -29.42900 31.11631 11547 ft 228 kts 192°
2026-05-06 16:55 -29.44308 31.11000 11380 ft 215 kts 221°
2026-05-06 16:56 -29.45528 31.10009 11167 ft 217 kts 224°
2026-05-06 16:56 -29.46733 31.08954 10934 ft 219 kts 224°
2026-05-06 16:56 -29.47944 31.07882 10705 ft 219 kts 221°
2026-05-06 16:56 -29.49147 31.06821 10447 ft 217 kts 220°
2026-05-06 16:57 -29.50344 31.05771 10212 ft 215 kts 221°
2026-05-06 16:57 -29.51532 31.04731 9976 ft 214 kts 220°
2026-05-06 16:57 -29.52711 31.03700 9759 ft 212 kts 220°
2026-05-06 16:57 -29.53881 31.02677 9600 ft 206 kts 219°
2026-05-06 16:58 -29.55007 31.01694 9487 ft 205 kts 220°
2026-05-06 16:58 -29.56142 31.00701 9320 ft 211 kts 220°
2026-05-06 16:58 -29.57341 30.99652 9086 ft 216 kts 219°
2026-05-06 16:58 -29.58523 30.98620 8865 ft 216 kts 220°
2026-05-06 16:59 -29.59711 30.97582 8618 ft 211 kts 221°
2026-05-06 16:59 -29.60866 30.96575 8390 ft 205 kts 221°
2026-05-06 16:59 -29.61990 30.95597 8195 ft 201 kts 221°
2026-05-06 16:59 -29.63108 30.94618 7969 ft 202 kts 221°
2026-05-06 17:00 -29.64233 30.93633 7740 ft 204 kts 221°
2026-05-06 17:00 -29.65364 30.92643 7534 ft 205 kts 221°
2026-05-06 17:00 -29.66504 30.91643 7312 ft 208 kts 221°
2026-05-06 17:00 -29.67662 30.90630 7059 ft 208 kts 221°
2026-05-06 17:01 -29.68806 30.89630 6822 ft 204 kts 221°
2026-05-06 17:01 -29.69926 30.88651 6594 ft 200 kts 221°
2026-05-06 17:01 -29.71026 30.87690 6368 ft 198 kts 221°
2026-05-06 17:01 -29.72120 30.86732 6151 ft 197 kts 221°
2026-05-06 17:02 -29.73201 30.85783 6037 ft 200 kts 221°
2026-05-06 17:02 -29.74316 30.84789 6021 ft 204 kts 223°
2026-05-06 17:02 -29.75461 30.83841 5982 ft 204 kts 207°
2026-05-06 17:02 -29.76870 30.83675 5994 ft 212 kts 171°
2026-05-06 17:03 -29.78176 30.84528 6009 ft 224 kts 135°
2026-05-06 17:03 -29.79157 30.85923 5972 ft 221 kts 129°
2026-05-06 17:03 -29.80055 30.87329 5982 ft 214 kts 128°
2026-05-06 17:03 -29.80628 30.88243 5993 ft 210 kts 128°
2026-05-06 17:04 -29.81478 30.89605 5990 ft 210 kts 127°
2026-05-06 17:04 -29.82311 30.90990 5986 ft 211 kts 120°
2026-05-06 17:04 -29.82543 30.92617 5997 ft 209 kts 74°
2026-05-06 17:04 -29.81762 30.93968 6012 ft 203 kts 34°
2026-05-06 17:05 -29.80241 30.95269 6005 ft 207 kts 34°
2026-05-06 17:05 -29.79083 30.96278 6005 ft 210 kts 34°
2026-05-06 17:05 -29.78312 30.96951 5994 ft 211 kts 34°
2026-05-06 17:05 -29.77144 30.97971 6006 ft 211 kts 34°
2026-05-06 17:06 -29.75966 30.99010 5886 ft 217 kts 36°
2026-05-06 17:06 -29.74806 31.00132 5565 ft 217 kts 38°
2026-05-06 17:06 -29.73681 31.01260 5155 ft 212 kts 34°
2026-05-06 17:06 -29.72513 31.02274 4757 ft 206 kts 29°
2026-05-06 17:07 -29.71403 31.03233 4298 ft 194 kts 31°
2026-05-06 17:07 -29.70393 31.04168 3886 ft 182 kts 38°
2026-05-06 17:07 -29.69409 31.05053 3325 ft 177 kts 34°
2026-05-06 17:07 -29.68416 31.05872 2794 ft 172 kts 30°
2026-05-06 17:08 -29.67423 31.06622 2226 ft 170 kts 31°
2026-05-06 17:08 -29.66465 31.07406 1571 ft 171 kts 37°
2026-05-06 17:08 -29.65516 31.08225 1277 ft 164 kts 33°
2026-05-06 17:08 -29.64665 31.08931 1045 ft 148 kts 36°
2026-05-06 17:09 -29.63880 31.09619 715 ft 135 kts 35°
2026-05-06 17:09 -29.63128 31.10251 460 ft 138 kts 31°
2026-05-06 17:09 -29.62402 31.10874 310 ft 124 kts 28°
2026-05-06 17:09 -29.61763 31.11415 299 ft 128 kts 37°
2026-05-06 17:10 -29.60938 31.12141 301 ft 138 kts 29°
2026-05-06 17:10 -29.60507 31.12512 302 ft 29 kts 33°
2026-05-06 17:10 -29.60348 31.12646 303 ft 27 kts 38°
2026-05-06 17:10 -29.60189 31.12786 304 ft 32 kts 37°
2026-05-06 17:11 -29.60009 31.12941 303 ft 32 kts 36°
2026-05-06 17:11 -29.59888 31.13043 303 ft 16 kts 28°
2026-05-06 17:11 -29.59811 31.13011 306 ft 8 kts 306°
2026-05-06 17:11 -29.59779 31.12957 307 ft 8 kts 300°
2026-05-06 17:12 -29.59778 31.12954 307 ft 0 kts 294°
2026-05-06 17:14 -29.59778 31.12953 307 ft 1 kts 294°
2026-05-06 17:14 -29.59774 31.12923 307 ft 5 kts 266°
2026-05-06 17:14 -29.59810 31.12875 309 ft 12 kts 218°
2026-05-06 17:15 -29.59903 31.12793 305 ft 20 kts 217°
2026-05-06 17:15 -29.60013 31.12697 307 ft 20 kts 216°
2026-05-06 17:15 -29.60120 31.12604 308 ft 19 kts 217°
2026-05-06 17:15 -29.60224 31.12514 309 ft 18 kts 217°
2026-05-06 17:16 -29.60324 31.12426 309 ft 18 kts 217°
2026-05-06 17:16 -29.60420 31.12342 307 ft 17 kts 216°
2026-05-06 17:16 -29.60513 31.12261 307 ft 16 kts 217°
2026-05-06 17:16 -29.60604 31.12183 304 ft 16 kts 217°
2026-05-06 17:17 -29.60708 31.12092 302 ft 20 kts 217°
2026-05-06 17:17 -29.60816 31.11995 304 ft 19 kts 218°
2026-05-06 17:17 -29.60923 31.11905 302 ft 19 kts 217°
2026-05-06 17:17 -29.61025 31.11816 303 ft 18 kts 217°
2026-05-06 17:18 -29.61123 31.11732 303 ft 17 kts 217°
2026-05-06 17:18 -29.61218 31.11648 302 ft 17 kts 218°
2026-05-06 17:18 -29.61309 31.11567 305 ft 16 kts 216°
2026-05-06 17:18 -29.61398 31.11491 298 ft 16 kts 217°
2026-05-06 17:19 -29.61482 31.11417 297 ft 15 kts 217°
2026-05-06 17:19 -29.61564 31.11347 296 ft 14 kts 217°
2026-05-06 17:19 -29.61644 31.11276 294 ft 14 kts 216°
2026-05-06 17:19 -29.61722 31.11209 296 ft 14 kts 218°
2026-05-06 17:20 -29.61796 31.11144 295 ft 14 kts 217°
2026-05-06 17:20 -29.61877 31.11074 295 ft 15 kts 216°
2026-05-06 17:20 -29.61965 31.10998 297 ft 16 kts 218°
2026-05-06 17:20 -29.62034 31.10936 299 ft 8 kts 216°
2026-05-06 17:21 -29.62083 31.10893 297 ft 10 kts 224°
2026-05-06 17:21 -29.62076 31.10822 296 ft 10 kts 307°
2026-05-06 17:21 -29.62034 31.10759 296 ft 10 kts 307°
2026-05-06 17:21 -29.62001 31.10710 300 ft 7 kts 307°
2026-05-06 17:22 -29.61985 31.10670 299 ft 6 kts 274°
2026-05-06 17:22 -29.61994 31.10627 296 ft 6 kts 278°
2026-05-06 17:22 -29.61984 31.10603 297 ft 2 kts 299°
2026-05-06 17:22 -29.61979 31.10597 296 ft 1 kts 315°
2026-05-06 17:23 -29.61975 31.10591 296 ft 1 kts 309°
2026-05-06 17:23 -29.61970 31.10585 295 ft 1 kts 310°
2026-05-06 17:23 -29.61966 31.10579 295 ft 1 kts 309°
2026-05-06 17:23 -29.61965 31.10577 295 ft 0 kts 309°
2026-05-06 17:24 -29.61963 31.10575 295 ft 0 kts 309°